Regional Weather Roundup
Issued by NWS Northern Indiana

Home | Current Version | Previous Version | Graphics & Text | Print | Product List | Glossary On
Versions: 1 2 3 4 5 6 7 8 9 10 11 12 13 14 15 16 17 18 19 20 21 22 23 24 25 26 27 28 29 30 31 32 33 34 35 36 37 38 39 40 41 42 43 44 45 46 47 48 49 50
312
ASUS43 KIWX 300910
RWRIWX

KIWX WEATHER ROUNDUP
NATIONAL WEATHER SERVICE NORTHERN INDIANA
500 AM EDT FRI SEP 30 2016

NOTE: "FAIR" INDICATES FEW OR NO CLOUDS BELOW 12,000 FEET WITH NO
SIGNIFICANT WEATHER AND/OR OBSTRUCTIONS TO VISIBILITY.

* THESE STATIONS ARE NOT UNDER NWS QUALITY CONTROL. THEY ALSO MAY NOT
  REPORT WEATHER SUCH AS PRECIPITATION OR FOG.

INZ001>027-301000-
NORTHERN INDIANA

CITY           SKY/WX    TMP DP  RH WIND       PRES   REMARKS
GARY*          CLOUDY    63  60  91 NE9G20    30.13S
VALPARAISO     CLOUDY    59  57  93 NE5       30.12S
MICHIGAN CITY* CLOUDY    57  57 100 CALM      30.13S FOG
LAPORTE*       CLOUDY   N/A N/A N/A NE9       30.13S
KNOX*          CLOUDY    59  46  63 NE7       30.10S
SOUTH BEND     CLOUDY    59  58  96 NE8       30.13S
GOSHEN         CLOUDY    61  57  87 NE13      30.11S
MONTICELLO*    CLOUDY    58  55  87 N6        30.06F
LOGANSPORT*    LGT RAIN  59  57  94 N7        30.07F
ROCHESTER*     CLOUDY    61  61 100 NE5       30.09S
WARSAW*        CLOUDY    59  59 100 NE6       30.09S
ANGOLA*          N/A     61  48  63 NE6       30.11S
FORT WAYNE     DRIZZLE   60  58  92 NE9       30.08F FOG
HUNTINGTON*    CLOUDY   N/A N/A N/A NE8       30.07S
PERU/GRISSOM   CLOUDY    60  60 100 N10       30.03F
MARION*        CLOUDY    59  58  96 NE12G17   30.04S FOG

$$
INZ028>050-301000-
CENTRAL INDIANA

CITY           SKY/WX    TMP DP  RH WIND       PRES   REMARKS
LAFAYETTE      CLOUDY    59  59 100 N10       30.05F
KOKOMO*        CLOUDY    61  59  94 N13       30.05S
MUNCIE*        CLOUDY    61  58  90 NE9       30.04S
INDIANAPOLIS   CLOUDY    59  58  96 NE7       30.03R

$$
MIZ043>046-050>051-056>058-064>065-071>073-077>080-301000-
SOUTHWEST LOWER MICHIGAN

CITY           SKY/WX    TMP DP  RH WIND       PRES   REMARKS
BATTLE CREEK   CLOUDY    59  59 100 NE8       30.16R FOG
BENTON HARBOR  CLOUDY    61  56  83 NE10      30.14S
COLDWATER*     CLOUDY    59  59 100 NE13      30.13F
HILLSDALE*     DRIZZLE   59  57  94 NE7       30.13R
HOLLAND        CLOUDY    60  56  86 NE8       30.17F
GRAND RAPIDS   LGT RAIN  58  56  93 NE10      30.19F
KALAMAZOO      LGT RAIN  60  56  86 NE7       30.15S
STURGIS*       HVY RAIN  60  58  92 NE10G17   30.12S
THREE RIVERS*  RAIN      60  59  95 NE9       30.14R

$$
OHZ001>008-015>018-024>025-301000-
NORTHWEST OHIO

CITY           SKY/WX    TMP DP  RH WIND       PRES   REMARKS
WAUSEON*       CLOUDY    61  61 100 E10       30.11S
DEFIANCE       CLOUDY    62  58  86 NE5       30.10F
FINDLAY        CLOUDY    62  57  83 NE7       30.07F
TOLEDO EXPRESS CLOUDY    61  60  97 E10       30.11S
TOLEDO METCALF CLOUDY    63  59  87 E9        30.12R
LIMA           LGT RAIN  59  59 100 NE10      30.06F FOG

$$
AND FOR LAKE MICHIGAN COASTAL AND OPEN LAKE BUOY OBSERVATIONS

STATION/POSITION TEMP    WIND        PRES    VSBY  WAVE
                 AIR SEA DIR/SP/G                  HT/PER
                 (F)     (DEG/KT/KT) (MB)    (MI)  (FT/S)
CALUMET HARBOR    62      40/ 13/ 19 1020.0F
MICHIGAN CITY     60      20/ 18/ 20   N/A
BURNS HARBOR      61      50/ 18/ 23 1020.0F
SAINT JOSEPH      60      30/  5/  8 1021.3
SOUTH LAKE BUOY   63 68   60/ 19/ 21 1021.3S         5/ 6
4 MI NW BRIDGMAN  57 56   30/ 10/ 12 1021.0          4/ 6
MICHIGAN CITY     61 64   40/ 16/ 23   N/A           6/ 6

$$
&&




USA.gov is the U.S. government's official web portal to all federal, state and local government web resources and services.